Regional Weather Roundup
Issued by NWS

Home | Current Version | Previous Version | Text Only | Print | Product List | Glossary Off
Versions: 1 2 3 4 5 6 7 8 9 10 11 12 13 14 15 16 17 18 19 20 21 22 23 24 25 26 27

000
ASUS45 KBOI 181710
RWRID

IDAHO REGIONAL WEATHER ROUNDUP
NATIONAL WEATHER SERVICE BOISE ID
1100 AM MDT MON SEP 18 2017

NOTE: "FAIR" INDICATES FEW OR NO CLOUDS BELOW 12000 FEET
WITH NO SIGNIFICANT WEATHER AND/OR OBSTRUCTIONS TO VISIBILITY

IDZ012-014-181800-
SOUTHWEST IDAHO


CITY           SKY/WX    TMP DP  RH WIND       PRES   REMARKS
BOISE          CLOUDY    63  51  65 CALM      29.81F
CALDWELL       LGT RAIN  60  53  77 SE3       29.81S
$$

IDZ016-017-181800-
SOUTHCENTRAL IDAHO


CITY           SKY/WX    TMP DP  RH WIND       PRES   REMARKS
BURLEY         CLOUDY    65  29  25 W6        29.87S
JEROME         CLOUDY    61  35  37 S3        29.88S
TWIN FALLS     CLOUDY    68  28  22 SW6       29.86F
$$

IDZ019>023-181800-
SOUTHEAST IDAHO


CITY           SKY/WX    TMP DP  RH WIND       PRES   REMARKS
IDAHO FALLS    CLOUDY    61  41  47 SW9       29.90S
POCATELLO      CLOUDY    68  36  30 S16       29.88F
REXBURG        CLOUDY    54  40  59 SW6       29.90F
$$

IDZ006-010-011-018-031-032-181800-
CENTRAL IDAHO MOUNTAINS


CITY           SKY/WX    TMP DP  RH WIND       PRES   REMARKS
MCCALL         LGT RAIN  47  45  93 SE6       29.81F
HAILEY         CLOUDY    50  39  66 SE3       29.92F
STANLEY          N/A     43  42  97 N3        29.90F
SALMON         LGT RAIN  51  45  79 CALM      29.87R
CHALLIS        CLOUDY    50  44  80 N3        29.85F
$$

IDZ002-004-006-007-026-181800-
NORTHERN IDAHO


CITY           SKY/WX    TMP DP  RH WIND       PRES   REMARKS
LEWISTON       RAIN      55  54  96 S6        29.77R FOG
LOWELL           N/A     54  44  69 NW3       29.72F
COEUR D`ALENE  PTSUNNY   52  50  93 SW5       29.70F
MULLAN PASS    RAIN      38  37  97 VRB6      29.74S VSB 1/2 WCI  33
$$




USA.gov is the U.S. government's official web portal to all federal, state and local government web resources and services.